{"data":{"norad_id":28184,"intl_designator":"2004-007A","name":"ABS-4 (MOBISAT-1)","alt_names":[],"object_type":"PAYLOAD","status":"ACTIVE","operator":null,"country":"ABS","launch_date":"2004-03-13","launch_site_code":"AFETR","launch_vehicle":null,"mission":null,"orbit_class":"UNKNOWN","rcs_meters":10,"size_class":null,"mass_kg":null,"dimensions":null,"purposes":["comms"],"wikipedia_slug":null,"has_3d_model":false,"image_url":null,"decayed_at":null,"tle_current":{"epoch":"2026-05-24T22:53:40.123968Z","epoch_age_seconds":73060,"freshness":"FRESH","line1":"1 28184U 04007A   26144.95393662  .00000036  00000+0  00000+0 0  9991","line2":"2 28184   5.9840  72.2843 0005362 351.8770 222.8141  1.00274091 52106","mean_motion":1.00274091,"eccentricity":0.0005362,"inclination_deg":5.984,"raan_deg":72.2843,"arg_perigee_deg":351.877,"mean_anomaly_deg":222.8141,"bstar":0,"rev_number":5210,"period_min":1436.0638781557,"perigee_km":35763.340135414,"apogee_km":35808.556900724,"semimajor_km":42164.085518069,"source":"CELESTRAK","updated_at":"2026-05-25T13:38:13.817625Z"}}}